DW6440 Weather Reports


Display with metric or nautical units.
time (UTC)temp
F
wind
direction
speed
MPH
gust
MPH
rain 1hr
in
rain 24hr
in
rain mn
in
humidity
%
barometer
mb
20260508030839 53 225 0.0 2.0 0.00 0.15 0.13 76 1009.4
20260508030337 52 225 0.0 2.0 0.00 0.17 0.13 76 1009.5
20260508025835 52 225 0.0 2.0 0.00 0.17 0.13 76 1009.4
20260508025336 53 225 0.0 0.0 0.00 0.17 0.13 75 1009.5
20260508024835 53 225 0.0 3.0 0.00 0.17 0.13 74 1009.5
20260508024336 53 225 1.0 5.0 0.00 0.17 0.13 74 1009.4
20260508023836 53 226 1.0 5.0 0.00 0.17 0.13 74 1009.4
20260508023338 53 277 1.0 3.0 0.00 0.17 0.13 74 1009.5
20260508022837 53 294 0.0 3.0 0.00 0.17 0.13 75 1009.4
20260508022557 52 294 0.0 3.0 0.00 0.18 0.13 75 1009.6
20260508022055 52 313 0.0 2.0 0.00 0.19 0.13 75 1009.5
20260508021338 52 313 0.0 2.0 0.00 0.19 0.13 76 1009.4
20260508020830 51 313 0.0 2.0 0.00 0.19 0.13 77 1009.5
20260508020555 51 313 1.0 2.0 0.00 0.19 0.13 77 1009.5
20260508015835 51 313 1.0 3.0 0.00 0.20 0.13 77 1009.4
20260508015339 51 313 1.0 3.0 0.00 0.20 0.13 77 1009.4
20260508014835 51 355 0.0 1.0 0.00 0.21 0.13 77 1009.2
20260508014331 51 355 0.0 1.0 0.00 0.21 0.13 77 1009.1
20260508013832 52 355 0.0 1.0 0.00 0.21 0.13 77 1009.1
20260508013332 52 355 0.0 1.0 0.00 0.21 0.13 76 1009.1
20260508012831 52 355 0.0 1.0 0.00 0.22 0.13 75 1009.0
20260508012329 52 355 0.0 1.0 0.00 0.22 0.13 74 1008.9
20260508011831 52 355 0.0 1.0 0.00 0.23 0.13 73 1008.8
20260508011330 52 355 0.0 1.0 0.00 0.24 0.13 73 1008.8
20260508010827 52 355 0.0 1.0 0.00 0.29 0.13 72 1008.7
20260508010326 52 355 0.0 0.0 0.00 0.30 0.13 72 1008.6
20260508005826 52 355 0.0 0.0 0.00 0.30 0.13 71 1008.5
20260508005550 52 355 0.0 0.0 0.00 0.30 0.13 71 1008.4
20260508004826 52 355 0.0 0.0 0.00 0.30 0.13 71 1008.5
20260508004326 53 355 0.0 0.0 0.00 0.30 0.13 70 1008.4
20260508003826 53 355 0.0 0.0 0.00 0.30 0.13 70 1008.4
20260508003326 53 355 0.0 0.0 0.00 0.30 0.13 70 1008.4
20260508002838 53 355 0.0 0.0 0.00 0.30 0.13 68 1008.4
20260508002544 54 355 0.0 0.0 0.00 0.30 0.13 66 1008.4
20260508002048 55 355 0.0 0.0 0.00 0.30 0.13 65 1008.4
20260508001322 55 355 0.0 1.0 0.00 0.30 0.13 64 1008.3
20260508001303 56 355 0.0 1.0 0.00 0.30 0.13 62 1008.2
20260508000312 56 355 0.0 0.0 0.00 0.30 0.13 61 1008.3
20260507235807 56 355 0.0 0.0 0.00 0.30 0.13 63 1008.1
20260507235527 57 355 0.0 1.0 0.00 0.30 0.13 59 1008.1
20260507234752 58 355 0.0 1.0 0.00 0.30 0.13 58 1008.0
20260507234246 58 355 0.0 1.0 0.00 0.30 0.13 57 1008.0
20260507233744 59 355 0.0 1.0 0.00 0.30 0.13 55 1007.9
20260507233246 60 355 0.0 2.0 0.00 0.30 0.13 53 1007.9
20260507232746 60 355 0.0 2.0 0.00 0.30 0.13 48 1007.8
20260507232241 61 355 0.0 2.0 0.00 0.30 0.13 47 1007.8
20260507231744 61 355 0.0 2.0 0.00 0.30 0.13 45 1007.8
20260507231240 61 355 1.0 3.0 0.00 0.30 0.13 42 1007.8
20260507231006 61 355 1.0 3.0 0.00 0.30 0.13 40 1007.8
20260507230237 61 355 0.0 3.0 0.00 0.30 0.13 44 1007.9
20260507225737 61 355 0.0 3.0 0.00 0.30 0.13 45 1007.9
20260507225238 62 355 1.0 3.0 0.00 0.30 0.13 43 1007.8
20260507224736 62 355 2.0 6.0 0.00 0.30 0.13 41 1007.8
20260507224233 63 355 3.0 8.0 0.00 0.30 0.13 38 1007.7
20260507223733 63 323 2.0 8.0 0.00 0.30 0.13 41 1007.8
20260507223234 64 19 2.0 4.0 0.00 0.30 0.13 41 1007.7
20260507222732 64 17 2.0 4.0 0.00 0.30 0.13 39 1007.7
20260507222234 63 325 2.0 4.0 0.00 0.30 0.13 38 1007.7
20260507221732 64 286 2.0 6.0 0.00 0.30 0.13 39 1007.8
20260507221229 64 313 2.0 6.0 0.00 0.30 0.13 40 1007.7
20260507220730 64 355 2.0 8.0 0.00 0.30 0.13 41 1007.8
20260507220234 64 273 2.0 8.0 0.00 0.30 0.13 42 1007.7
20260507215941 64 252 2.0 6.0 0.00 0.30 0.13 40 1007.8
20260507215211 64 0 3.0 8.0 0.00 0.30 0.13 39 1007.9
20260507214703 64 317 3.0 8.0 0.00 0.30 0.13 41 1008.0
20260507214156 64 317 3.0 8.0 0.00 0.30 0.13 43 1007.9
20260507213910 64 287 2.0 7.0 0.00 0.30 0.13 44 1007.9
20260507213145 65 271 2.0 7.0 0.00 0.30 0.13 40 1008.0
20260507212905 65 55 3.0 10.0 0.00 0.30 0.13 42 1008.0
20260507212401 65 0 4.0 11.0 0.00 0.30 0.13 43 1008.0
20260507211627 65 22 5.0 11.0 0.00 0.30 0.13 40 1008.1
20260507211120 65 0 3.0 11.0 0.00 0.30 0.13 38 1008.0
20260507210618 65 281 2.0 6.0 0.00 0.30 0.13 44 1007.9
20260507210110 63 343 2.0 8.0 0.00 0.30 0.13 44 1007.9
20260507205820 63 318 2.0 8.0 0.00 0.30 0.13 43 1007.9
20260507205057 64 334 3.0 8.0 0.00 0.30 0.13 41 1008.0
20260507204813 63 230 3.0 8.0 0.00 0.30 0.13 43 1007.9
20260507204044 63 319 3.0 9.0 0.00 0.30 0.13 44 1007.9
20260507203539 64 271 4.0 9.0 0.00 0.30 0.13 42 1007.9
20260507203033 65 243 5.0 9.0 0.00 0.30 0.13 42 1007.8
20260507202532 65 326 4.0 10.0 0.00 0.30 0.13 40 1007.8
20260507202021 64 30 5.0 11.0 0.00 0.30 0.13 40 1007.8
20260507202010 64 5 5.0 11.0 0.00 0.30 0.13 39 1007.9
20260507201009 64 17 6.0 13.0 0.00 0.30 0.13 42 1008.1
20260507200505 63 330 7.0 13.0 0.00 0.30 0.13 42 1008.1
20260507200219 63 355 4.0 12.0 0.00 0.30 0.13 44 1008.1
20260507195451 63 327 4.0 14.0 0.00 0.30 0.13 41 1008.1
20260507195207 64 312 5.0 14.0 0.00 0.30 0.13 41 1008.2
20260507194441 64 338 6.0 14.0 0.00 0.30 0.13 41 1008.2
20260507193935 64 342 7.0 17.0 0.00 0.30 0.13 41 1008.3
20260507193427 64 355 6.0 17.0 0.00 0.30 0.13 42 1008.4
20260507192923 64 317 5.0 12.0 0.00 0.30 0.13 44 1008.4
20260507192633 64 0 5.0 12.0 0.00 0.30 0.13 41 1008.4
20260507191908 64 329 4.0 12.0 0.00 0.30 0.13 43 1008.5
20260507191624 64 306 4.0 12.0 0.00 0.30 0.13 43 1008.6
20260507190857 64 9 3.0 12.0 0.00 0.30 0.13 40 1008.5
20260507190351 64 259 4.0 12.0 0.00 0.30 0.13 43 1008.6
20260507185844 64 261 4.0 12.0 0.00 0.30 0.13 44 1008.7
20260507185608 64 302 4.0 12.0 0.00 0.30 0.13 41 1008.7
20260507184832 64 262 4.0 12.0 0.00 0.30 0.13 43 1008.9
20260507184556 64 215 3.0 10.0 0.00 0.30 0.13 42 1008.9
20260507183821 63 264 3.0 10.0 0.00 0.30 0.13 43 1008.9
20260507183315 63 18 5.0 13.0 0.00 0.30 0.13 42 1009.0
20260507183029 63 0 6.0 13.0 0.00 0.30 0.13 42 1009.1
20260507182306 63 344 4.0 11.0 0.00 0.30 0.13 43 1009.1
20260507181757 62 30 4.0 11.0 0.00 0.30 0.13 44 1009.1
20260507181305 63 25 4.0 11.0 0.00 0.30 0.13 49 1009.0
20260507180749 63 347 5.0 12.0 0.00 0.30 0.13 46 1009.0
20260507180234 63 343 4.0 12.0 0.00 0.30 0.13 45 1009.1
20260507175957 62 267 4.0 11.0 0.00 0.30 0.13 46 1009.1
20260507175232 62 180 5.0 11.0 0.00 0.30 0.13 49 1009.2
20260507174731 62 300 5.0 9.0 0.00 0.30 0.13 47 1009.3
20260507174231 62 304 5.0 9.0 0.00 0.30 0.13 46 1009.3
20260507173958 62 355 6.0 11.0 0.00 0.30 0.13 49 1009.3
20260507173232 62 323 6.0 11.0 0.00 0.30 0.13 46 1009.4
20260507172730 63 328 4.0 11.0 0.00 0.30 0.13 47 1009.4
20260507172232 62 308 3.0 9.0 0.00 0.30 0.13 50 1009.5
20260507171732 61 261 3.0 9.0 0.00 0.30 0.13 45 1009.7
20260507171231 62 286 6.0 13.0 0.00 0.30 0.13 50 1009.8
20260507170729 62 335 7.0 20.0 0.00 0.30 0.13 47 1010.0
20260507170227 62 34 4.0 20.0 0.00 0.30 0.13 46 1009.9
20260507165729 62 321 4.0 13.0 0.00 0.30 0.13 55 1009.9
20260507165513 61 256 5.0 12.0 0.00 0.30 0.13 51 1010.0
20260507164732 61 327 5.0 12.0 0.00 0.30 0.13 52 1010.1
20260507164233 61 300 5.0 12.0 0.00 0.30 0.13 49 1010.3
20260507163733 61 26 4.0 12.0 0.00 0.30 0.13 47 1010.3
20260507163229 61 340 4.0 12.0 0.00 0.30 0.13 52 1010.4
20260507162950 60 34 4.0 12.0 0.00 0.30 0.13 52 1010.4
20260507162227 60 50 5.0 9.0 0.00 0.30 0.13 52 1010.5
20260507161725 60 344 6.0 13.0 0.00 0.30 0.13 52 1010.6
20260507161225 60 11 5.0 13.0 0.00 0.30 0.13 50 1010.7
20260507160724 60 23 3.0 10.0 0.00 0.30 0.13 49 1010.7
20260507160450 59 323 4.0 10.0 0.00 0.31 0.13 52 1010.7
20260507155728 60 319 4.0 10.0 0.00 0.31 0.13 51 1010.8
20260507155225 60 315 4.0 11.0 0.00 0.31 0.13 57 1010.8
20260507154956 59 15 5.0 11.0 0.00 0.32 0.13 52 1010.8
20260507154225 59 42 5.0 11.0 0.00 0.32 0.13 54 1010.9
20260507153722 60 332 5.0 11.0 0.00 0.34 0.13 50 1010.9
20260507153227 59 355 4.0 10.0 0.00 0.35 0.13 55 1010.9
20260507152728 59 348 3.0 10.0 0.00 0.36 0.13 54 1011.0
20260507152220 58 35 4.0 9.0 0.00 0.37 0.13 59 1011.0
20260507151719 58 5 4.0 9.0 0.00 0.38 0.13 57 1011.1
20260507151702 58 322 3.0 8.0 0.00 0.39 0.13 63 1011.2
20260507150721 58 355 3.0 8.0 0.00 0.39 0.13 63 1011.4
20260507150219 58 5 4.0 9.0 0.00 0.40 0.13 55 1011.3
20260507145720 58 325 5.0 10.0 0.00 0.41 0.13 54 1011.4
20260507145221 58 293 6.0 13.0 0.00 0.41 0.13 60 1011.6
20260507144719 58 328 5.0 13.0 0.00 0.41 0.13 58 1011.6
20260507144219 57 343 6.0 11.0 0.00 0.42 0.13 61 1011.6
20260507143718 56 314 6.0 12.0 0.00 0.43 0.13 58 1011.7
20260507143219 56 330 5.0 12.0 0.00 0.44 0.13 61 1012.0
20260507142718 56 5 5.0 12.0 0.00 0.44 0.13 66 1011.9
20260507142435 56 5 5.0 12.0 0.00 0.45 0.13 63 1011.8
20260507141717 56 355 5.0 11.0 0.00 0.46 0.13 66 1011.8
20260507141448 55 321 4.0 9.0 0.00 0.46 0.13 62 1011.9
20260507140717 55 5 4.0 8.0 0.00 0.46 0.13 65 1012.0
20260507140217 55 296 4.0 9.0 0.00 0.47 0.13 68 1012.1
20260507135717 54 317 4.0 9.0 0.00 0.48 0.13 66 1012.1
20260507135216 55 267 5.0 10.0 0.00 0.48 0.13 69 1011.9
20260507134717 54 327 5.0 11.0 0.00 0.49 0.13 65 1011.9
20260507134433 54 327 5.0 11.0 0.00 0.50 0.13 64 1011.9
20260507133712 53 333 4.0 10.0 0.00 0.50 0.13 68 1011.9
20260507133443 54 5 3.0 9.0 0.00 0.50 0.13 71 1012.0
20260507132943 53 318 2.0 6.0 0.00 0.50 0.13 71 1012.1
20260507132442 53 252 2.0 8.0 0.00 0.50 0.13 70 1012.2
20260507132206 53 323 3.0 8.0 0.00 0.50 0.13 72 1012.1
20260507131213 52 323 3.0 6.0 0.00 0.50 0.13 72 1012.0
20260507130712 52 312 4.0 9.0 0.00 0.50 0.13 74 1012.0
20260507130438 52 313 5.0 10.0 0.00 0.50 0.13 72 1012.0
20260507125932 52 333 4.0 10.0 0.00 0.50 0.13 74 1012.1
20260507125200 52 340 5.0 11.0 0.00 0.50 0.13 73 1012.0
20260507125143 51 355 4.0 11.0 0.00 0.50 0.13 75 1011.9
20260507124418 51 319 4.0 10.0 0.00 0.50 0.13 77 1011.9
20260507123642 51 350 4.0 11.0 0.00 0.50 0.13 77 1012.0
20260507123139 51 323 3.0 11.0 0.00 0.50 0.13 79 1012.0
20260507122640 51 336 4.0 10.0 0.00 0.50 0.13 78 1012.1
20260507122138 51 301 3.0 10.0 0.00 0.50 0.13 79 1012.1
20260507121858 51 15 3.0 10.0 0.00 0.50 0.13 81 1012.0
20260507121359 51 9 4.0 10.0 0.00 0.50 0.13 80 1012.0
20260507120638 51 30 4.0 10.0 0.00 0.50 0.13 81 1011.9
20260507120139 51 5 3.0 9.0 0.00 0.50 0.13 82 1011.9
20260507115639 51 344 3.0 10.0 0.00 0.50 0.13 83 1011.8
20260507115151 51 305 3.0 11.0 0.00 0.50 0.13 85 1011.6
20260507115145 51 309 4.0 11.0 0.00 0.50 0.13 84 1011.7
20260507114137 51 316 3.0 9.0 0.00 0.50 0.13 86 1011.7
20260507113635 51 302 3.0 8.0 0.00 0.50 0.13 86 1011.8
20260507113137 51 292 4.0 8.0 0.00 0.50 0.13 87 1011.6
20260507112635 50 325 3.0 9.0 0.00 0.50 0.13 88 1011.5
20260507112138 50 309 2.0 9.0 0.00 0.50 0.13 89 1011.6
20260507111636 50 342 1.0 4.0 0.00 0.50 0.13 90 1011.5
20260507111133 50 317 1.0 4.0 0.00 0.50 0.13 90 1011.5
20260507110857 50 312 1.0 5.0 0.00 0.50 0.13 90 1011.5
20260507110126 50 312 1.0 5.0 0.00 0.50 0.13 91 1011.5
20260507105621 51 286 1.0 4.0 0.00 0.50 0.13 91 1011.5
20260507105114 51 280 0.0 3.0 0.00 0.50 0.13 91 1011.4
20260507104610 51 279 0.0 2.0 0.00 0.50 0.13 91 1011.3
20260507104101 51 279 0.0 2.0 0.00 0.50 0.13 92 1011.0
20260507103824 51 279 0.0 2.0 0.00 0.50 0.13 92 1011.0
20260507103053 51 279 0.0 0.0 0.00 0.50 0.13 92 1010.9
20260507102545 51 279 0.0 2.0 0.00 0.50 0.13 92 1010.8
20260507102039 51 279 0.0 2.0 0.00 0.50 0.13 92 1010.7
20260507101547 51 279 0.0 0.0 0.00 0.50 0.13 91 1010.6
20260507101025 51 279 0.0 0.0 0.00 0.50 0.13 91 1010.6
20260507100746 51 279 0.0 0.0 0.00 0.50 0.13 91 1010.6
20260507100014 51 279 0.0 0.0 0.00 0.50 0.13 91 1010.5
20260507095507 51 279 0.0 0.0 0.00 0.50 0.13 91 1010.7
20260507095002 51 279 0.0 0.0 0.00 0.50 0.13 91 1010.7
20260507094457 51 279 0.0 1.0 0.00 0.50 0.13 91 1010.5
20260507093950 51 279 0.0 2.0 0.00 0.50 0.13 91 1010.5
20260507093446 51 279 0.0 2.0 0.00 0.50 0.13 91 1010.4
20260507093202 51 279 0.0 2.0 0.00 0.50 0.13 91 1010.4
20260507092431 51 279 1.0 3.0 0.00 0.50 0.13 91 1010.3
20260507091926 51 279 1.0 3.0 0.00 0.50 0.13 91 1010.4
20260507091419 51 279 1.0 5.0 0.00 0.50 0.13 91 1010.2
20260507090914 51 271 1.0 5.0 0.00 0.50 0.13 91 1010.3
20260507090408 51 276 1.0 4.0 0.00 0.50 0.13 91 1010.2
20260507085901 51 277 1.0 4.0 0.00 0.50 0.13 91 1010.1
20260507085357 51 273 0.0 3.0 0.00 0.50 0.13 91 1010.1
20260507084852 51 309 0.0 2.0 0.00 0.50 0.13 91 1010.1
20260507084345 51 310 0.0 2.0 0.00 0.50 0.13 91 1010.1
20260507084058 51 310 0.0 5.0 0.00 0.50 0.13 91 1010.0
20260507083332 51 310 0.0 5.0 0.00 0.50 0.13 91 1010.1
20260507082825 51 336 0.0 0.0 0.01 0.50 0.13 91 1010.0
20260507082320 51 336 0.0 0.0 0.01 0.50 0.13 91 1009.9
20260507082034 51 336 0.0 0.0 0.01 0.50 0.13 91 1010.0
20260507081309 51 336 0.0 0.0 0.01 0.50 0.13 91 1010.0
20260507080804 51 336 0.0 0.0 0.01 0.50 0.13 91 1009.9
20260507080310 51 336 0.0 0.0 0.01 0.50 0.13 91 1009.9
20260507080012 51 336 0.0 0.0 0.01 0.50 0.13 91 1010.0
20260507075244 51 336 0.0 0.0 0.01 0.50 0.13 91 1010.0
20260507074740 51 336 0.0 0.0 0.02 0.50 0.13 91 1010.1
20260507074233 51 336 0.0 0.0 0.02 0.50 0.13 91 1010.1
20260507073727 51 336 0.0 2.0 0.02 0.50 0.13 91 1010.2
20260507073220 51 336 1.0 3.0 0.03 0.49 0.12 91 1010.3
20260507072934 51 336 0.0 3.0 0.04 0.49 0.12 91 1010.2
20260507072207 51 330 0.0 0.0 0.04 0.49 0.12 91 1010.4
20260507071701 51 330 0.0 0.0 0.05 0.49 0.12 91 1010.3
20260507071158 51 330 0.0 0.0 0.05 0.49 0.12 90 1010.4
20260507070649 51 329 0.0 0.0 0.05 0.49 0.12 90 1010.6
20260507070146 51 329 1.0 4.0 0.05 0.49 0.12 90 1010.6
20260507065639 51 329 1.0 4.0 0.05 0.49 0.12 90 1010.5
20260507065132 51 329 0.0 2.0 0.05 0.49 0.12 90 1010.6
20260507064625 51 329 1.0 3.0 0.04 0.48 0.11 90 1010.7
20260507064120 51 329 1.0 5.0 0.04 0.48 0.11 90 1010.8
20260507063613 51 335 1.0 5.0 0.04 0.47 0.11 89 1010.6
20260507063555 51 340 1.0 5.0 0.04 0.46 0.09 89 1010.7
20260507062602 51 355 3.0 6.0 0.04 0.45 0.08 89 1010.6
20260507062057 51 321 2.0 6.0 0.04 0.45 0.08 89 1010.5
20260507061551 51 347 2.0 6.0 0.04 0.44 0.07 90 1010.7
20260507061044 51 298 3.0 9.0 0.05 0.44 0.07 90 1010.6
20260507060538 51 338 4.0 11.0 0.07 0.44 0.07 90 1010.4
20260507060031 52 331 4.0 11.0 0.07 0.44 0.07 90 1010.4
20260507055529 52 321 3.0 10.0 0.07 0.44 0.07 90 1010.3
20260507055027 52 319 3.0 10.0 0.07 0.44 0.07 90 1010.4
20260507054523 53 301 2.0 9.0 0.07 0.44 0.07 90 1010.4
20260507054025 53 338 2.0 7.0 0.07 0.44 0.07 90 1010.4
20260507053523 53 334 3.0 9.0 0.06 0.43 0.06 90 1010.4
20260507053025 53 349 3.0 9.0 0.05 0.42 0.05 90 1010.4
20260507053014 53 350 2.0 9.0 0.04 0.41 0.04 89 1010.5
20260507052027 53 317 1.0 6.0 0.04 0.41 0.04 89 1010.7
20260507051750 54 281 3.0 9.0 0.03 0.40 0.03 89 1010.7
20260507051023 54 276 4.0 9.0 0.02 0.39 0.02 88 1010.4
20260507050741 54 323 4.0 9.0 0.00 0.37 0.00 88 1010.6
20260507050024 55 288 4.0 10.0 0.00 0.37 0.00 89 1010.8
20260507045524 55 251 4.0 10.0 0.00 0.37 0.00 89 1010.2
20260507045023 55 311 4.0 12.0 0.00 0.37 0.00 89 1010.1
20260507045008 55 344 4.0 14.0 0.00 0.37 0.00 89 1009.8
20260507044016 56 341 2.0 14.0 0.00 0.37 0.00 89 1010.2
20260507043733 56 259 1.0 5.0 0.00 0.37 0.00 89 1010.0
20260507043016 56 309 1.0 5.0 0.00 0.37 0.00 89 1009.9
20260507042514 56 318 1.0 5.0 0.00 0.37 0.00 89 1009.5
20260507042020 56 298 1.0 5.0 0.01 0.37 0.00 89 1009.4
20260507041513 56 5 2.0 7.0 0.01 0.37 0.00 89 1009.7
20260507041013 56 325 1.0 7.0 0.01 0.37 0.00 89 1009.8
20260507040742 56 323 2.0 8.0 0.03 0.37 0.00 89 1009.7
20260507040015 56 306 3.0 8.0 0.04 0.37 0.00 89 1009.4
20260507035514 56 340 5.0 16.0 0.04 0.37 0.37 89 1009.2
20260507035020 56 254 6.0 16.0 0.04 0.37 0.37 89 1009.2
20260507034513 56 333 6.0 15.0 0.04 0.37 0.37 90 1009.3
20260507034143 57 333 4.0 14.0 0.04 0.37 0.37 90 1010.1
20260507033507 58 311 2.0 10.0 0.04 0.37 0.37 90 1009.9
20260507033008 58 317 1.0 4.0 0.04 0.37 0.37 90 1009.6
20260507032731 58 317 2.0 5.0 0.04 0.37 0.37 90 1009.5
20260507032008 58 318 2.0 7.0 0.05 0.36 0.36 90 1009.3
20260507031507 58 316 1.0 7.0 0.05 0.36 0.36 90 1009.4